When you browse on this site, cookies collect data to enhance your experience and personalize the content and advertising you see.
Visit our Privacy Policy to learn more. By continuing to use the site, you agree to this use of cookies and data.
  • In Schweiz
  • Länderverzeichnis
  • Für 7 Tage
  • Wassertemperatur
  • Satellitenkarten
  • Wetterkarte
  • Widgets
  • user-avatar
    Anmelden

    Stündliche Wetter Lezhe

    Heute, 16 Juni, Sonntag

    Zeit Temperatur Niederschläge Wind Luftdruck Luftfeuchtigkeit
    00:00 +24°C° 0 mm 2 m/S 736 mmHg 67%
    01:00 +24°C° 0 mm 2 m/S 736 mmHg 67%
    02:00 +24°C° 0 mm 2 m/S 735 mmHg 68%
    03:00 +23°C° 0 mm 2 m/S 735 mmHg 69%
    04:00 +23°C° 0 mm 1 m/S 735 mmHg 69%
    05:00 +25°C° 0 mm 1 m/S 735 mmHg 66%
    06:00 +26°C° 0 mm 1 m/S 735 mmHg 62%
    07:00 +28°C° 0 mm 1 m/S 736 mmHg 61%
    08:00 +30°C° 0 mm 1 m/S 736 mmHg 57%
    09:00 +31°C° 0 mm 2 m/S 735 mmHg 53%
    10:00 +32°C° 0 mm 2 m/S 735 mmHg 49%
    11:00 +32°C° 0.1 mm 2 m/S 735 mmHg 50%
    12:00 +32°C° 0.1 mm 2 m/S 735 mmHg 50%
    13:00 +32°C° 0.1 mm 2 m/S 735 mmHg 51%
    14:00 +31°C° 0.8 mm 2 m/S 735 mmHg 53%
    15:00 +30°C° 0.8 mm 2 m/S 735 mmHg 56%
    16:00 +29°C° 0.8 mm 2 m/S 735 mmHg 58%
    17:00 +28°C° 0 mm 2 m/S 735 mmHg 62%
    18:00 +26°C° 0 mm 2 m/S 735 mmHg 67%
    19:00 +24°C° 0 mm 2 m/S 735 mmHg 71%
    20:00 +24°C° 0 mm 2 m/S 735 mmHg 70%
    21:00 +23°C° 0 mm 1 m/S 735 mmHg 70%
    22:00 +23°C° 0 mm 1 m/S 735 mmHg 70%
    23:00 +22°C° 0.2 mm 1 m/S 735 mmHg 71%

    Morgen, 17 Juni, Montag

    Zeit Temperatur Niederschläge Wind Luftdruck Luftfeuchtigkeit
    00:00 +22°C° 0.2 mm 1 m/S 735 mmHg 72%
    01:00 +20°C° 0.2 mm 2 m/S 735 mmHg 73%
    02:00 +21°C° 0 mm 1 m/S 735 mmHg 74%
    03:00 +21°C° 0 mm 1 m/S 735 mmHg 76%
    04:00 +21°C° 0 mm 1 m/S 735 mmHg 77%
    05:00 +22°C° 0 mm 1 m/S 735 mmHg 74%
    06:00 +24°C° 0 mm 1 m/S 735 mmHg 70%
    07:00 +25°C° 0 mm 1 m/S 736 mmHg 66%
    08:00 +27°C° 0 mm 1 m/S 736 mmHg 61%
    09:00 +29°C° 0 mm 2 m/S 736 mmHg 56%
    10:00 +30°C° 0 mm 2 m/S 736 mmHg 50%
    11:00 +30°C° 0.1 mm 2 m/S 736 mmHg 50%
    12:00 +31°C° 0.1 mm 2 m/S 736 mmHg 50%
    13:00 +31°C° 0.1 mm 2 m/S 736 mmHg 50%
    14:00 +30°C° 0.2 mm 2 m/S 736 mmHg 52%
    15:00 +30°C° 0.2 mm 2 m/S 735 mmHg 53%
    16:00 +30°C° 0.2 mm 2 m/S 735 mmHg 55%
    17:00 +28°C° 0.1 mm 1 m/S 735 mmHg 61%
    18:00 +27°C° 0.1 mm 1 m/S 735 mmHg 67%
    19:00 +25°C° 0.1 mm 1 m/S 735 mmHg 74%
    20:00 +24°C° 0 mm 1 m/S 736 mmHg 74%
    21:00 +23°C° 0 mm 1 m/S 736 mmHg 75%
    22:00 +21°C° 0 mm 2 m/S 736 mmHg 76%
    23:00 +22°C° 0.1 mm 1 m/S 736 mmHg 76%

    übermorgen, 18 Juni, Dienstag

    Zeit Temperatur Niederschläge Wind Luftdruck Luftfeuchtigkeit
    00:00 +22°C° 0.1 mm 1 m/S 736 mmHg 76%
    01:00 +21°C° 0.1 mm 1 m/S 736 mmHg 76%
    02:00 +21°C° 0 mm 1 m/S 736 mmHg 76%
    03:00 +21°C° 0 mm 1 m/S 736 mmHg 76%
    04:00 +21°C° 0 mm 1 m/S 736 mmHg 77%
    05:00 +22°C° 0 mm 1 m/S 736 mmHg 72%
    06:00 +24°C° 0 mm 1 m/S 736 mmHg 68%
    07:00 +25°C° 0 mm 1 m/S 736 mmHg 64%
    08:00 +27°C° 0 mm 1 m/S 736 mmHg 59%
    09:00 +29°C° 0 mm 1 m/S 736 mmHg 54%
    10:00 +30°C° 0 mm 1 m/S 736 mmHg 49%
    11:00 +30°C° 0.1 mm 2 m/S 736 mmHg 51%
    12:00 +30°C° 0.1 mm 2 m/S 736 mmHg 52%
    13:00 +30°C° 0.1 mm 3 m/S 736 mmHg 53%
    14:00 +29°C° 1 mm 2 m/S 736 mmHg 59%
    15:00 +28°C° 1 mm 2 m/S 735 mmHg 65%
    16:00 +26°C° 1 mm 2 m/S 735 mmHg 70%
    17:00 +25°C° 0.1 mm 1 m/S 735 mmHg 73%
    18:00 +24°C° 0.1 mm 1 m/S 735 mmHg 77%
    19:00 +23°C° 0.1 mm 1 m/S 735 mmHg 80%
    20:00 +23°C° 0.1 mm 1 m/S 736 mmHg 78%
    21:00 +22°C° 0.1 mm 1 m/S 736 mmHg 76%
    22:00 +21°C° 0.1 mm 1 m/S 736 mmHg 75%
    23:00 +21°C° 0.2 mm 1 m/S 736 mmHg 76%

    19 Juni, Mittwoch

    Zeit Temperatur Niederschläge Wind Luftdruck Luftfeuchtigkeit
    00:00 +21°C° 0.2 mm 1 m/S 736 mmHg 77%
    01:00 +20°C° 0.2 mm 1 m/S 736 mmHg 78%
    02:00 +20°C° 0.1 mm 1 m/S 735 mmHg 79%
    03:00 +20°C° 0.1 mm 1 m/S 735 mmHg 79%
    04:00 +20°C° 0.1 mm 1 m/S 735 mmHg 79%
    05:00 +21°C° 0 mm 1 m/S 735 mmHg 75%
    06:00 +21°C° 0 mm 0 m/S 736 mmHg 71%
    07:00 +23°C° 0 mm 0 m/S 736 mmHg 67%
    08:00 +26°C° 0 mm 1 m/S 736 mmHg 62%
    09:00 +28°C° 0 mm 1 m/S 736 mmHg 58%
    10:00 +29°C° 0 mm 1 m/S 736 mmHg 54%
    11:00 +29°C° 0.4 mm 2 m/S 735 mmHg 55%
    12:00 +29°C° 0.4 mm 3 m/S 735 mmHg 56%
    13:00 +29°C° 0.4 mm 3 m/S 735 mmHg 57%
    14:00 +29°C° 0.7 mm 3 m/S 735 mmHg 59%
    15:00 +28°C° 0.7 mm 2 m/S 735 mmHg 61%
    16:00 +28°C° 0.7 mm 2 m/S 734 mmHg 63%
    17:00 +26°C° 0.2 mm 2 m/S 734 mmHg 70%
    18:00 +24°C° 0.2 mm 1 m/S 735 mmHg 77%
    19:00 +23°C° 0.2 mm 1 m/S 735 mmHg 84%
    20:00 +22°C° 0 mm 1 m/S 735 mmHg 85%
    21:00 +21°C° 0 mm 1 m/S 735 mmHg 86%
    22:00 +19°C° 0 mm 0 m/S 735 mmHg 88%
    23:00 +18°C° 0 mm 0 m/S 735 mmHg 86%

    20 Juni, Donnerstag

    Zeit Temperatur Niederschläge Wind Luftdruck Luftfeuchtigkeit
    00:00 +18°C° 0 mm 0 m/S 735 mmHg 85%
    01:00 +17°C° 0 mm 0 m/S 735 mmHg 83%
    02:00 +19°C° 0 mm 1 m/S 735 mmHg 82%
    03:00 +19°C° 0 mm 1 m/S 735 mmHg 82%
    04:00 +19°C° 0 mm 1 m/S 735 mmHg 81%
    05:00 +20°C° 0 mm 1 m/S 735 mmHg 76%
    06:00 +22°C° 0 mm 1 m/S 735 mmHg 71%
    07:00 +22°C° 0 mm 0 m/S 735 mmHg 67%
    08:00 +25°C° 0 mm 1 m/S 735 mmHg 63%
    09:00 +27°C° 0 mm 1 m/S 735 mmHg 60%
    10:00 +28°C° 0 mm 2 m/S 735 mmHg 56%
    11:00 +28°C° 0 mm 2 m/S 735 mmHg 56%
    12:00 +29°C° 0 mm 2 m/S 735 mmHg 56%
    13:00 +29°C° 0 mm 3 m/S 735 mmHg 56%
    14:00 +28°C° 0 mm 2 m/S 735 mmHg 58%
    15:00 +28°C° 0 mm 2 m/S 735 mmHg 59%
    16:00 +28°C° 0 mm 2 m/S 735 mmHg 60%
    17:00 +26°C° 0 mm 1 m/S 735 mmHg 68%
    18:00 +24°C° 0 mm 1 m/S 735 mmHg 75%
    19:00 +21°C° 0 mm 0 m/S 735 mmHg 82%
    20:00 +20°C° 0 mm 0 m/S 735 mmHg 84%
    21:00 +19°C° 0 mm 0 m/S 735 mmHg 85%
    22:00 +19°C° 0 mm 0 m/S 736 mmHg 87%
    23:00 +18°C° 0 mm 0 m/S 736 mmHg 86%

    21 Juni, Freitag

    Zeit Temperatur Niederschläge Wind Luftdruck Luftfeuchtigkeit
    00:00 +18°C° 0 mm 0 m/S 736 mmHg 85%
    01:00 +18°C° 0 mm 0 m/S 735 mmHg 85%
    02:00 +20°C° 0 mm 1 m/S 735 mmHg 85%
    03:00 +20°C° 0 mm 1 m/S 735 mmHg 84%
    04:00 +19°C° 0 mm 1 m/S 736 mmHg 84%
    05:00 +21°C° 0 mm 1 m/S 736 mmHg 79%
    06:00 +21°C° 0 mm 0 m/S 736 mmHg 73%
    07:00 +23°C° 0 mm 0 m/S 736 mmHg 68%
    08:00 +26°C° 0 mm 1 m/S 736 mmHg 63%
    09:00 +28°C° 0 mm 1 m/S 736 mmHg 58%
    10:00 +30°C° 0 mm 1 m/S 736 mmHg 53%
    11:00 +30°C° 0 mm 2 m/S 736 mmHg 53%
    12:00 +30°C° 0 mm 2 m/S 736 mmHg 53%
    13:00 +30°C° 0 mm 3 m/S 736 mmHg 53%
    14:00 +30°C° 0.2 mm 3 m/S 736 mmHg 56%
    15:00 +29°C° 0.2 mm 2 m/S 736 mmHg 59%
    16:00 +29°C° 0.2 mm 2 m/S 736 mmHg 61%
    17:00 +27°C° 0.1 mm 1 m/S 736 mmHg 69%
    18:00 +26°C° 0.1 mm 1 m/S 736 mmHg 76%
    19:00 +24°C° 0.1 mm 1 m/S 736 mmHg 83%
    20:00 +23°C° 0 mm 1 m/S 736 mmHg 84%
    21:00 +23°C° 0 mm 1 m/S 736 mmHg 85%
    22:00 +20°C° 0 mm 0 m/S 737 mmHg 86%
    23:00 +22°C° 0 mm 1 m/S 737 mmHg 84%
    Mehr zeigen